sat.trackr.live / text

‹ back to catalog

STARLINK-5273

NORAD 54162 · 2022-141F

PAYLOAD ACTIVE UNKNOWN

§ Identity

Operator
Country
US
Launch date
2022-10-28
Launch site
AFWTR
Launch vehicle
Mass (kg)
RCS (m²)

Purposes: comms

External: N2YO · Heavens-Above · Gunter

§ Orbital elements

Epoch: 2026-05-25T02:36:01.052928Z

Period
95.44 min
Inclination
53.2137°
Eccentricity
0.0001550
Mean motion
15.08858926 rev/d
Perigee alt
538.6 km
Apogee alt
540.8 km
Semi-major
6,917.8 km
B*
-2.6478e-4
RAAN
31.0784°
Arg perigee
97.5933°
Mean anomaly
262.5235°
Rev number
19,725

§ Raw data

STARLINK-52731 54162U 22141F   26145.10834552 -.00004502  00000+0 -26478-3 0  99962 54162  53.2137  31.0784 0001550  97.5933 262.5235 15.08858926197252

JSON: /api/v1/satellites/54162 · /tle

For live sub-satellite position, see the globe view (requires WebGL).

§ Visibility from observer

Set your observer location to see the next 7 days of passes ≥ 10°. The values pass through the URL so the page stays shareable.

No JS? Fill the form by hand. The geolocation button needs JavaScript.